TimeCET,TemperatureF,Dew PointF,Humidity,Sea Level PressureIn,VisibilityMPH,Wind Direction,Wind SpeedMPH,Gust SpeedMPH,PrecipitationIn,Events,Conditions,WindDirDegrees,DateUTC
12:55 AM,10.4,1.4,67,29.15,-9999.0,West,18.4,-,N/A,,Clear,280,2013-03-14 23:55:00
1:00 AM,10,1,55,,6,West,18.4,,,,Clear,280,2013-03-15 00:00:00
4:00 AM,9,-0,52,,6,West,13.8,,,,Clear,260,2013-03-15 03:00:00
7:00 AM,8,-1,53,,31,West,16.1,,,,Clear,280,2013-03-15 06:00:00
9:55 AM,12.2,-4.0,48,29.30,-9999.0,NNW,9.2,-,N/A,,Clear,340,2013-03-15 08:55:00
10:00 AM,12,-5,31,,47,NNW,9.2,,,,Clear,340,2013-03-15 09:00:00
10:55 AM,14.0,-4.0,45,29.33,-9999.0,NW,11.5,-,N/A,,Clear,310,2013-03-15 09:55:00
11:55 AM,14.0,-4.0,45,29.36,-9999.0,NNW,9.2,-,N/A,,Clear,330,2013-03-15 10:55:00
12:55 PM,15.8,-5.8,38,29.39,-9999.0,North,8.1,-,N/A,,Clear,350,2013-03-15 11:55:00
1:00 PM,15,-6,23,,44,North,8.1,,,,Scattered Clouds,350,2013-03-15 12:00:00
1:55 PM,15.8,-5.8,38,29.42,-9999.0,NNW,6.9,-,N/A,,Clear,330,2013-03-15 12:55:00
2:55 PM,15.8,-5.8,38,29.42,-9999.0,NNW,6.9,-,N/A,,Clear,330,2013-03-15 13:55:00
3:55 PM,15.8,-7.6,35,29.44,-9999.0,NW,9.2,-,N/A,,Clear,310,2013-03-15 14:55:00
4:00 PM,15,-7,22,,37,NW,9.2,,,,Scattered Clouds,310,2013-03-15 15:00:00
4:55 PM,15.8,-5.8,38,29.44,-9999.0,NNW,12.7,-,N/A,,Clear,330,2013-03-15 15:55:00
5:55 PM,14.0,-7.6,38,29.50,-9999.0,North,9.2,-,N/A,,Clear,350,2013-03-15 16:55:00
6:55 PM,12.2,-7.6,41,29.53,-9999.0,WNW,4.6,-,N/A,,Clear,290,2013-03-15 17:55:00
7:00 PM,12,-8,24,,31,WNW,4.6,,,,,290,2013-03-15 18:00:00
9:55 PM,10.4,-9.4,41,29.59,-9999.0,NNW,3.5,-,N/A,,Clear,340,2013-03-15 20:55:00
10:00 PM,10,-9,26,,19,NNW,3.5,,,,,340,2013-03-15 21:00:00